Location: Woodstock
(43.1330°N, 80.7500°W)
Time: 07:36:03
(UTC-05:00)

Daily predictions for brighter satellites

Satellite Brightness Start Highest point End
(mag) Time Altitude Azimuth Time Altitude Azimuth Time Altitude Azimuth
Cosmos 1980 Rocket 4.4 18:22:22 10° NW 18:27:22 33° WSW 18:32:22 10° SSW
DNEPR-1 R/B 3.6 18:26:36 10° NW 18:30:52 80° WSW 18:35:07 10° SSE
Cosmos 676 Rocket 4.3 18:26:30 10° S 18:31:24 45° ESE 18:36:22 10° NNE
YAOGAN 1 4.4 18:31:54 10° SSW 18:35:55 38° W 18:39:59 10° NNW
Nadezhda 1 Rocket 4.0 18:31:38 10° N 18:37:45 89° W 18:43:49 10° S
Meteor 1-11 Rocket 4.5 18:34:13 10° SSE 18:39:17 33° E 18:44:29 10° NNE
Cosmos 1461 3.4 18:39:35 10° NW 18:43:34 61° WSW 18:47:37 10° SSE
DELTA 2 R/B (1) 4.2 18:39:03 10° W 18:44:30 52° SSW 18:49:56 10° ESE
Cosmos 1140 Rocket 4.0 18:41:50 10° SSE 18:46:31 37° ESE 18:51:15 10° NE
Cosmos 1602 4.3 18:46:10 10° SSE 18:49:44 36° E 18:53:21 10° NNE
Resurs 01 Rocket 2.5 18:46:30 10° SE 18:50:14 28° ENE 18:54:00 10° N
Cosmos 1300 Rocket 4.0 18:47:11 10° SSE 18:51:16 38° E 18:55:24 10° NNE
Cosmos 2292 Rocket 4.4 18:49:05 10° S 18:54:16 72° E 19:01:17 10° N
Cosmos 1190 Rocket 4.4 18:49:19 10° SSW 18:54:28 67° WNW 18:59:40 10° NNE
COSMO-SKYMED 1 3.3 18:50:54 10° N 18:55:11 59° WNW 18:59:26 10° SSW
Abrixas rocket 4.4 18:54:19 10° SSE 18:55:51 13° SE 18:56:52 11° ESE
Cosmos 1833 4.3 18:50:45 10° S 18:56:20 59° ESE 19:01:54 10° NNE
Cosmos 2181 Rocket 4.1 18:51:33 10° N 18:57:43 58° E 19:03:56 10° SSE
ALOS 2.6 18:53:43 10° SE 18:58:08 44° ENE 19:02:35 10° N
USA 229 DEB 4.4 18:54:42 10° NNW 19:01:16 38° NE 19:07:02 14° ESE
USA 229 4.4 18:54:48 10° NNW 19:01:22 38° NE 19:07:06 14° ESE
Cosmos 2333 Rocket 3.7 18:57:37 10° N 19:01:37 19° NE 19:04:11 14° ENE
Spot 2 Rocket 3.9 18:57:55 10° SE 19:02:35 39° ENE 19:07:17 10° N
SL-16 R/B 3.4 18:58:06 10° NW 19:03:30 46° WSW 19:08:52 10° S
FREGAT/IRIS 2.5 19:02:40 10° SSE 19:05:44 81° ENE 19:08:51 10° N
Cosmos 1340 2.6 19:02:25 10° N 19:06:14 81° E 19:10:00 10° SSE
Helios 1A 4.2 19:04:17 15° ESE 19:06:21 22° ENE 19:09:32 10° NNE
Resurs 1-3 4.2 19:04:05 10° SE 19:08:03 35° ENE 19:12:03 10° N
Cosmos 1850 Rocket 4.4 19:08:41 10° S 19:13:38 42° ESE 19:18:39 10° NNE
Cosmos 1709 Rocket 4.0 19:07:25 10° S 19:13:39 88° E 19:19:50 10° N
Cosmos 2074 Rocket 4.4 19:08:09 10° SSE 19:13:51 39° E 19:19:35 10° NNE
Cosmos 2184 Rocket 4.4 19:11:01 10° SSE 19:16:48 39° E 19:22:33 10° NNE
Helios 1B rocket 3.6 19:14:33 10° NE 19:18:13 22° ESE 19:21:06 10° SSE
Envisat 4.3 19:18:29 19° ENE 19:19:11 20° ENE 19:22:45 10° NNE
Cosmos 2322 Rocket 4.0 19:14:50 10° NW 19:19:48 33° WSW 19:24:44 10° SSW
FengYun 1-2 T 4.1 19:14:47 10° SSE 19:20:14 72° ENE 19:25:43 10° N
Cosmos 1954 Rocket 4.1 19:15:59 10° SSW 19:21:11 81° WNW 19:26:27 10° NNE
Okean 2 4.4 19:18:05 10° NNE 19:21:35 25° ENE 19:22:00 25° E
USA 186 4.1 19:24:36 11° NNE 19:24:36 11° NNE 19:24:48 10° NNE
HJ-1C 3.2 19:19:31 10° SSE 19:22:53 78° ENE 19:26:16 10° N
Tiangong 2 3.7 19:22:03 10° WSW 19:23:59 16° SSW 19:25:55 10° S
SJ-6B 3.3 19:20:17 10° S 19:24:16 64° WSW 19:28:11 10° NNW
Okean 1 Rocket 3.0 19:21:33 10° S 19:26:00 70° E 19:30:29 10° NNE
Genesis I 3.2 19:22:11 10° NNW 19:26:05 58° NE 19:28:05 26° ESE
FENGYUN 3A 3.6 19:22:38 10° SSE 19:28:03 84° ENE 19:33:30 10° NNW
Meteor 1-19 Rocket 4.3 19:22:21 10° N 19:28:04 88° WSW 19:33:50 10° S
TSX-5 4.4 19:25:59 10° SW 19:29:01 43° WNW 19:32:12 10° NNE
SAR-Lupe-4 3.9 19:30:26 33° ESE 19:31:29 42° ENE 19:34:53 10° N
NOSS 8 (F) 4.3 19:28:11 10° SSW 19:31:41 82° SE 19:33:49 23° NE
Gbstr 26 Del rocket 2.5 19:31:51 10° SW 19:35:38 72° SE 19:36:52 39° ENE
Cosmos 2322 3.9 19:30:38 10° NNW 19:36:21 72° WSW 19:42:00 10° SSE
Cosmos 1238 Rocket 3.3 19:34:27 10° NNW 19:37:18 42° W 19:40:07 10° SSW
Cosmos 2285 Rocket 4.1 19:37:23 10° NNW 19:43:45 56° ENE 19:47:50 22° SE
GEOS 3 Rocket 3.5 19:39:42 12° NE 19:44:40 79° SE 19:49:57 10° SSW
Cosmos 1025 Rocket 2.9 19:40:34 10° N 19:44:56 68° E 19:48:41 14° SSE
CZ-2D R/B 3.1 19:43:32 27° SSE 19:45:30 70° ENE 19:49:19 10° N
GPS 2-04 Rocket1 4.3 19:42:42 10° SW 19:46:07 23° SSE 19:46:29 22° SSE
Cosmos 405 Rocket 3.9 19:42:22 10° N 19:45:01 29° NE 19:45:01 29° NE
H-2A R/B 2.8 19:47:06 10° S 19:50:47 74° WSW 19:54:32 10° NNW
Okean 1-7 Rocket 3.7 19:46:37 10° N 19:51:10 77° W 19:55:38 10° S
Cosmos 1536 3.0 19:47:42 10° SSW 19:51:40 71° W 19:55:40 10° N
COSMOS 2428 2.6 19:46:01 10° NNW 19:51:44 82° ENE 19:55:37 21° SSE
Meteor 1-23 Rocket 4.2 19:45:58 10° N 19:51:49 86° E 19:57:34 10° S
Cosmos 2237 4.3 19:46:14 10° NNW 19:52:00 80° WSW 19:57:28 11° SSE
Cosmos 2333 4.1 19:47:22 10° NNW 19:53:07 74° ENE 19:56:21 27° SE
Meteor 2-4 Rocket 3.8 19:48:36 10° NNW 19:54:09 74° W 19:59:32 10° S
Cosmos 2237 Rocket 3.0 19:50:38 10° N 19:55:45 32° NE 19:55:53 32° ENE
SL-08 ROCKET BODY 4.4 19:52:37 10° S 19:58:47 86° W 20:05:03 10° N
Cosmos 1741 Rocket 4.2 19:59:29 10° SSW 20:04:42 72° WNW 20:09:56 10° NNE
NOSS 0 Rocket 4.0 20:01:19 10° NNW 20:07:21 54° ENE 20:08:25 48° E
Cosmos 2360 Rocket 3.8 20:05:37 10° NW 20:10:37 33° WSW 20:15:37 10° SSW
Cosmos 2219 Rocket 2.1 20:07:10 10° NNW 20:12:46 68° ENE 20:13:35 59° ESE
Cosmos 2219 3.3 20:07:23 10° SSW 20:13:08 79° WNW 20:18:55 10° NNE
Resurs 01 Rocket 3.6 20:22:50 10° SSW 20:26:39 28° W 20:30:28 10° NW
SL-16 R/B 3.7 20:24:21 10° N 20:27:20 23° NNE 20:27:20 23° NNE
BREEZE-M DEB (TANK) 4.1 20:29:34 10° WNW 20:33:19 71° SSW 20:35:01 52° SE
ATLAS CENTAUR R/B 4.4 20:30:30 10° SW 20:30:46 11° SW 20:30:46 11° SW
Cosmos 468 Rocket 4.1 20:34:40 10° NNW 20:39:26 72° NW 20:39:26 72° NW
Helios 1A 4.5 20:40:56 31° WSW 20:41:43 34° W 20:45:32 10° NNW
Cosmos 2333 Rocket 2.3 20:40:49 10° NNW 20:46:14 77° WNW 20:46:14 77° WNW
USA 229 DEB 4.2 20:45:35 10° NW 20:52:33 58° WSW 20:54:32 44° S
USA 229 4.2 20:45:41 10° NW 20:52:39 58° WSW 20:54:36 45° S
Helios 1B rocket 4.4 20:49:28 10° N 20:54:33 25° WSW 20:56:51 10° SW
Cosmos 1980 4.1 20:48:40 10° NNW 20:53:09 57° NNW 20:53:09 57° NNW
Envisat 3.8 20:58:41 48° WNW 20:58:41 48° WNW 21:02:46 10° NNW
NOSS 3-1 (A) 4.0 20:57:55 10° NNW 21:04:58 68° NNE 21:04:58 68° NNE
ATLAS 2AS CENTAUR R/B 4.1 21:03:52 10° NNW 21:10:18 31° NNE 21:10:18 31° NNE
NOSS 3-1 (C) 4.1 21:17:25 10° NW 21:24:23 74° WNW 21:24:23 74° WNW
Cosmos 2237 Rocket 3.9 21:34:34 10° NW 21:37:45 29° WNW 21:37:45 29° WNW
